Flag for Germany Weather past 2 weeks in Lemgo, North Rhine-Westphalia, Germany

Now
40 °F

Overcast.


Feels Like: 40 °F
Forecast: 46 / 68 °F
Wind: 1 mph from North

Location: Bad Lippspringe


UV Index: 0 (Low)

Visibility: 6 mi


Pressure: 30.01 "Hg

Humidity: 96%

Dew point: 39 °F

Location of LemgoLocation

Historic Weather in Lemgo

°F

Lemgo temperature yesterday

Maximum temperature yesterday: 51 °F (at 3:00 PM)
Minimum temperature yesterday: 41 °F (at 11:00 PM)
Average temperature yesterday: 45 °F

Past Weeks' High & Low Weather Summary

 TemperatureHumidityPressure
High68 °F (Apr 7, 5:00 PM)99% (Apr 6, 8:00 AM)30.47 "Hg (Apr 6, 8:00 AM)
Low28 °F (Apr 16, 7:00 AM)34% (Apr 17, 4:00 PM)29.71 "Hg (Apr 4, 3:00 AM)
Average50 °F76%30.06 "Hg
* Reported Apr 4 3:00 AM — Apr 19 3:00 AM, Lemgo, Weather by CustomWeather, © 2014

Note: Actual official high and low records may vary slightly from our data, if they occured in-between our weather recording intervals... More about our weather records

Advertising

Historic Weather Conditions — Data for Previous 24 hours

 ConditionsComfort  
Time TempWeatherWind HumidityBarometerVisibility
3:00 AM
Apr 19
40 °FOvercast.1 mph96%30.01 "Hg6 mi
2:00 AM41 °FOvercast.1 mph96%30.00 "Hg7 mi
1:00 AM40 °FLow clouds.1 mph95%30.00 "Hg14 mi
12:00 AM41 °FLight rain. Low clouds.1 mph94%29.98 "Hg12 mi
11:00 PM
Apr 18
41 °FLight rain. Overcast.1 mph93%29.98 "Hg16 mi
10:00 PM41 °FLight freezing rain. Overcast.5 mph89%29.97 "Hg14 mi
9:00 PM47 °FOvercast.2 mph68%29.95 "Hg22 mi
8:00 PM48 °FPartly sunny.3 mph66%29.92 "Hg31 mi
7:00 PM48 °FOvercast.6 mph68%29.92 "Hg28 mi
6:00 PM47 °FOvercast.2 mph76%29.92 "Hg37 mi
5:00 PM50 °FPartly sunny.5 mph64%29.91 "Hg28 mi
4:00 PM49 °FPartly sunny.8 mph64%29.92 "Hg43 mi
3:00 PM51 °FOvercast.6 mph56%29.91 "Hg28 mi
2:00 PM47 °FPartly sunny.5 mph71%29.92 "Hg28 mi
1:00 PM43 °FRain. Overcast.8 mph85%29.93 "Hg7 mi
12:00 PM50 °FPartly sunny.7 mph65%29.90 "Hg25 mi
11:00 AM46 °FPartly sunny.5 mph79%29.90 "Hg18 mi
10:00 AM43 °FOvercast.5 mph90%29.90 "Hg12 mi
9:00 AM42 °FRain. Overcast.3 mph91%29.89 "Hg3 mi
8:00 AM42 °FLight rain. Overcast.3 mph92%29.88 "Hg9 mi
7:00 AM42 °FPartly sunny.3 mph93%29.88 "Hg6 mi
6:00 AM43 °FOvercast.3 mph94%29.87 "Hg5 mi
5:00 AM44 °FLow clouds.3 mph94%29.86 "Hg4 mi
4:00 AM44 °FRain. Low clouds.2 mph95%29.85 "Hg4 mi
3:00 AM45 °FLight freezing rain. Low clouds.3 mph94%29.87 "Hg2 mi
Weather by CustomWeather, © 2014

See weather overview